Погода Лиепая

Погода Лиепая : погода сейчас, прогноз погоды и архив. Всё, что Вы хотите узнать о погоде Лиепая!

Поиск расширенной информации на нашем сайте:

Другие новости

Новости СМИ2

Главная страница сайта

Новости сайта

02.10.2013

Напоминаем, что на нашем новом сайте вы можете получить высокодетализированные прогнозы погоды по пунктам России, СНГ и мира (включающие важные для авиации метеовеличины, такие как направление и скорость ветра, видимость, явления погоды, количество и форма облачности, нижняя и верхняя граница облачности), а также ознакомиться с разнообразными материалами по авиационной метеорологии и подборкой полезных ссылок на эту тему.

Сайт Метеоцентр.Азия посвящён разработке технологий оптимизации авиаметеорологического обслуживания, включая проектирование и перспективное создание нескольких автоматизированных авиаметеорологических систем:
- система выпуска высокодетальных прогностических карт явлений погоды для нижнего воздушного пространства по России и ближнему зарубежью;
- система верификации прогнозов TAF (выпускаемых синоптиками официальных АМСГ РФ и ближнего зарубежья) и AUTOTAF (выпускаемых сайтом Метеоцентр.Азия) - выявление ошибок, онлайн-сопоставление с фактической погодой METAR, автоматическое внесение коррективов в прогнозы при резком отклонении фактической погоды от прогноза, подсчёт оправдываемости прогнозов по элементам и в целом;
- система обработки, анализа и отображения авиаметеорологической информации для применения провайдерами метеорологической информации.

Рекомендуем: Доставка бетона в самаре Наша компания занимается собственным производством бетона всех марок

Погода Лиепая - сегодня

Время (UTC), дата Ветер
(°,м/с) 
Видим.   Явления Облачность Т
(°С)
Тd
(°С)
f(%) Тe
(°С)
Pmin
(гПа)
dP
(гПа)
Po
(мм)
O2
(г/м3)
Тmin Tmax R s Состояние
почвы
15 18.01.17 220 (ЮЗ) 10 км  в посл. час морось  10/10 270 м 
[St]
+2.9 +2.4 97 1032.3  774  307           
18 18.01.17 230 (ЮЗ) 6{11}  4000 м  слаб. морось  10/10 180 м 
[St]
+2.7 +2.6 99 1031.2  -1.1  773  307    +2.9     
21 18.01.17 220 (ЮЗ) 6{11}  4000 м  слаб. морось  10/10 270 м 
[St]
+3 +2.5 97 1030.3  -0.9  772  307           
00 19.01.17 240 (ЮЗ) 6-10{11}  4000 м  слаб. дождь{морось}  10/10 150 м 
[Frnb|Ns]
+3 +2.9 99 1028.9  -1.4  771  307           
06 19.01.17 230 (ЮЗ) 5{11}  4000 м  слаб. морось{дождь}  10/10 210 м 
[St]
+3.2 +3 99 +1  1026.9  -1.1  770  305  +2.7       
09 19.01.17 230 (ЮЗ) 1900 м  слаб. морось  10/10 180 м 
[St]
+3.3 +3.2 99 +1  1027.3  0.4  770  305           
12 19.01.17 240 (ЮЗ) 4000 м  дымка{морось}  10/10 270 м 
[St]
+3.6 +3.2 97 +1  1026  -1.3  769  305           
15 19.01.17 240 (ЮЗ) 5{10}  4000 м  дымка  10/10 240 м 
[St]
+3.7 +3.3 97 +1  1025.2  -0.8  768  304           
18 19.01.17 240 (ЮЗ) 4{10}  10 км    10/10 270 м 
[St]
+3.4 +3.2 99 +1  1024.9  -0.3  768  304    +3.8  0.6     
21 19.01.17 250 (З) 10 км    4/4 600 м 
[Sc diur, vesp]
+3.6 +3.2 97 +2  1024.4  -0.5  768  304           
00 20.01.17 300 (СЗ) 10 км    ясно 
+3.4 +3 97 +3  1024.8  0.4  768  305           
03 20.01.17 190 (Ю) 4000 м  дымка  ясно 
+1.5 +1.4 99 +2  1025.2  0.4  768  307           
06 20.01.17 210 (ЮЗ) 1000 м  дымка  10/10 270 м 
[St]
+1.7 +1.6 99 +2  1025  -0.2  768  307  -0.1         
09 20.01.17 220 (ЮЗ) 0400 м  туман  ?/?  
+3 +2.9 99 +2  1025.2  0.2  768  305           
12 20.01.17 240 (ЮЗ) 2100 м  дымка{туман}  10/10 270 м 
[St]
+3.2 +3.1 99 +1  1023.4  -1.8  767  305           
15 20.01.17 250 (З) 4{10}  1000 м  слаб. морось{туман}  10/10 270 м 
[St]
+2.8 +2.7 99 +1  1022.6  -0.8  766  304           
18 20.01.17 250 (З) 3{10}  4000 м  дымка{морось, туман}  3/1 300 м верхняя 
[St|Ci fib]
+3.4 +3.3 99 +2  1022.1  -0.5  766  304    +3.5  0.0     
21 20.01.17 270 (З) 10 км    ясно 
+3.1 +3 99 +3  1022.8  0.7  766  304           
00 21.01.17 260 (З) 10 км    ясно 
+1.1 +1 99 +2  1023.6  0.8  767  308           
03 21.01.17 310 (СЗ) 1000 м    ясно 
+3.4 +3.3 99 +3  1024.4  0.8  768  304           
06 21.01.17 320 (СЗ) 10 км    3/1 300 м верхняя 
[St|Ci fib]
+2.8 +2.7 99 +2  1025.5  1.1  768  305  -0.8         
09 21.01.17 310 (СЗ) 10 км    9/0 верхняя 
[Ci sp]
+4 +3.1 94 +5  1027.4  1.9  770  305           
12 21.01.17 330 (СЗ) 10 км    8/0 средняя, верхняя 
[Ac trans|Ci sp]
+6.2 +2.8 79 +7  1028.3  0.9  771  303           
15 21.01.17 250 (З) 10 км    6/0 верхняя 
[Ci sp]
+2.5 +2.1 97 +2  1028.8  0.5  771  307           
18 21.01.17 200 (Ю) 0500 м  туман  ?/?  
-0.6 -0.7 99 1029.5  0.7  771  311    +6.5       
Время (UTC), дата Ветер
(°,м/с) 
Видим.   Явления Облачность Т
(°С)
Тd
(°С)
f(%) Тe
(°С)
Pmin
(гПа)
dP
(гПа)
Po
(мм)
O2
(г/м3)
Тmin Tmax R s Состояние
почвы

Для получения пояснительной информации подведите курсор к названию столбца.

ПОГОДА Лиепая - архив

Всё, что Вы хотите узнать о погоде Лиепая - удобно и подробно!

Выберите нужную дату (начиная с 1 января 2015* года) и нажмите кнопку "Найти".
Будут отображены архивные сводки погоды по пункту Лиепая, начиная с указанной даты.


Отображать данные в формате CSV (для использования в таблицах Excel)


Внимание! Наш архив погоды предназначен исключительно для личного некоммерческого использования в познавательных целях. Если Вам необходимы официальные справки о состоянии погоды (для производственных, юридических, коммерческих и т.п. целей), обращайтесь в органы Росгидромета.

*Примечание: данная дата относится к архиву по метеостанциям СССР (Россия, СНГ, Балтия).
Архив по метеостанциям Зарубежной Европы и Азии (кроме Китая) хранится 10 дней, по другим регионам земного шара (Китай, Африка, Америка, Австралия, Океания) - 1 день.

Лиепая - район местоположения метеостанции


Название, широта, долгота, высота метеостанции:
Лиепая 56.5°ш. 21°д. 7 м над ур. моря [Латвия]

Дополнительная информация

В oтличие oт бoльшинства пoгoдных сайтoв мы публикуем пoдрoбную метеoинфoрмацию в детальнoм прoфессиoнальнoм фoрмате.

Характеристики температуры и влажнoсти вoздуха измеряются на высoте 2 м в тени вдали oт зданий и деревьев.
Скoрoсть ветра измеряется на высoте 10 м (на урoвне рoста челoвека скoрoсть ветра ниже в 1.5-2 раза). Если метеoстанция нахoдится в гoрoде или в лесу, тo скoрoсть ветра занижена на 2-4 м/с пo сравнению с oткрытым местoм. Скoрoсть ветра над акватoриями крупных рек и oзёр, а также на вершинах хoлмoв на 2-5 м/с выше, чем в oбычных услoвиях.
Атмoсфернoе давление в разных тoчках местнoсти мoжет значительнo oтличаться oт давления на метеoстанции, в зависимoсти oт услoвий рельефа (при пoдъёме на 10 м давление пoнижается примернo на 1 мм рт.ст.).